Time,TemperatureF,DewpointF,PressureIn,WindDirection,WindDirectionDegrees,WindSpeedMPH,WindSpeedGustMPH,Humidity,HourlyPrecipIn,Conditions,Clouds,dailyrainin,SoftwareType,DateUTC
2013-10-28 00:13:00,59.5,43.0,30.18,South,170,1.0,1.0,55,0.00,,,0.00,weatherlink.com 1.10,2013-10-28 04:13:00,
2013-10-28 00:28:00,59.5,45.0,30.18,ESE,114,0.0,2.0,59,0.00,,,0.00,weatherlink.com 1.10,2013-10-28 04:28:00,
2013-10-28 00:43:00,59.4,44.0,30.19,ESE,114,0.0,1.0,58,0.00,,,0.00,weatherlink.com 1.10,2013-10-28 04:43:00,
2013-10-28 00:58:00,59.6,44.0,30.19,ESE,114,1.0,1.0,57,0.00,,,0.00,weatherlink.com 1.10,2013-10-28 04:58:00,
2013-10-28 01:13:00,59.1,45.0,30.18,ESE,114,0.0,1.0,59,0.00,,,0.00,weatherlink.com 1.10,2013-10-28 05:13:00,
2013-10-28 01:28:00,58.9,45.0,30.18,ESE,114,1.0,1.0,60,0.00,,,0.00,weatherlink.com 1.10,2013-10-28 05:28:00,
2013-10-28 01:43:00,58.9,46.0,30.18,ESE,114,0.0,0.0,63,0.00,,,0.00,weatherlink.com 1.10,2013-10-28 05:43:00,
2013-10-28 01:58:00,59.1,45.0,30.19,ESE,114,1.0,1.0,61,0.00,,,0.00,weatherlink.com 1.10,2013-10-28 05:58:00,
2013-10-28 02:13:00,59.3,46.0,30.19,ESE,114,0.0,1.0,62,0.00,,,0.00,weatherlink.com 1.10,2013-10-28 06:13:00,
2013-10-28 02:28:00,59.9,49.0,30.19,East,100,0.0,1.0,67,0.00,,,0.00,weatherlink.com 1.10,2013-10-28 06:28:00,
2013-10-28 02:43:00,59.4,48.0,30.18,East,100,0.0,1.0,67,0.00,,,0.00,weatherlink.com 1.10,2013-10-28 06:43:00,
2013-10-28 02:58:00,59.3,49.0,30.18,East,100,1.0,1.0,69,0.00,,,0.00,weatherlink.com 1.10,2013-10-28 06:58:00,
2013-10-28 03:13:00,59.4,49.0,30.18,East,100,2.0,2.0,68,0.00,,,0.00,weatherlink.com 1.10,2013-10-28 07:13:00,
2013-10-28 03:28:00,59.4,48.0,30.18,East,101,3.0,3.0,67,0.00,,,0.00,weatherlink.com 1.10,2013-10-28 07:28:00,
2013-10-28 03:43:00,59.3,48.0,30.18,ESE,108,3.0,3.0,67,0.00,,,0.00,weatherlink.com 1.10,2013-10-28 07:43:00,
2013-10-28 03:58:00,59.4,48.0,30.18,SE,127,2.0,3.0,67,0.00,,,0.00,weatherlink.com 1.10,2013-10-28 07:58:00,
2013-10-28 04:13:00,59.2,48.0,30.18,SE,127,1.0,2.0,67,0.00,,,0.00,weatherlink.com 1.10,2013-10-28 08:13:00,
2013-10-28 04:28:00,59.1,48.0,30.18,SE,127,2.0,3.0,67,0.00,,,0.00,weatherlink.com 1.10,2013-10-28 08:28:00,
2013-10-28 04:43:00,59.3,49.0,30.18,SE,126,2.0,3.0,68,0.00,,,0.00,weatherlink.com 1.10,2013-10-28 08:43:00,
2013-10-28 04:58:00,59.6,48.0,30.18,SE,127,2.0,3.0,66,0.00,,,0.00,weatherlink.com 1.10,2013-10-28 08:58:00,
2013-10-28 05:13:00,59.7,48.0,30.19,SE,127,2.0,3.0,66,0.00,,,0.00,weatherlink.com 1.10,2013-10-28 09:13:00,
2013-10-28 05:28:00,59.7,48.0,30.20,SE,127,1.0,2.0,66,0.00,,,0.00,weatherlink.com 1.10,2013-10-28 09:28:00,
2013-10-28 05:43:00,59.3,48.0,30.20,SE,127,2.0,2.0,66,0.00,,,0.00,weatherlink.com 1.10,2013-10-28 09:43:00,
2013-10-28 05:58:00,59.5,47.0,30.20,SE,127,3.0,3.0,64,0.00,,,0.00,weatherlink.com 1.10,2013-10-28 09:58:00,
2013-10-28 06:13:00,59.5,48.0,30.21,SE,127,2.0,3.0,65,0.00,,,0.00,weatherlink.com 1.10,2013-10-28 10:13:00,
2013-10-28 06:28:00,59.2,46.0,30.21,SE,135,2.0,3.0,61,0.00,,,0.00,weatherlink.com 1.10,2013-10-28 10:28:00,
2013-10-28 06:43:00,58.7,45.0,30.21,South,175,2.0,4.0,60,0.00,,,0.00,weatherlink.com 1.10,2013-10-28 10:43:00,
2013-10-28 06:58:00,58.6,45.0,30.22,SSW,197,2.0,4.0,61,0.00,,,0.00,weatherlink.com 1.10,2013-10-28 10:58:00,
2013-10-28 07:13:00,58.4,44.0,30.22,SSW,192,3.0,4.0,59,0.00,,,0.00,weatherlink.com 1.10,2013-10-28 11:13:00,
2013-10-28 07:28:00,58.1,43.0,30.23,South,179,2.0,3.0,57,0.00,,,0.00,weatherlink.com 1.10,2013-10-28 11:28:00,
2013-10-28 07:43:00,58.0,44.0,30.23,SW,214,4.0,5.0,60,0.00,,,0.00,weatherlink.com 1.10,2013-10-28 11:43:00,
2013-10-28 07:58:00,58.6,45.0,30.24,SSW,206,2.0,4.0,60,0.00,,,0.00,weatherlink.com 1.10,2013-10-28 11:58:00,
2013-10-28 08:14:00,58.8,45.0,30.24,SW,221,4.0,5.0,61,0.00,,,0.00,weatherlink.com 1.10,2013-10-28 12:14:00,
2013-10-28 08:29:00,58.6,45.0,30.25,SSW,194,3.0,5.0,62,0.00,,,0.00,weatherlink.com 1.10,2013-10-28 12:29:00,
2013-10-28 08:44:00,58.8,47.0,30.25,South,181,3.0,4.0,64,0.00,,,0.00,weatherlink.com 1.10,2013-10-28 12:44:00,
2013-10-28 08:59:00,59.1,49.0,30.26,SE,139,2.0,6.0,69,0.00,,,0.00,weatherlink.com 1.10,2013-10-28 12:59:00,
2013-10-28 09:14:00,59.3,50.0,30.26,SSW,194,3.0,6.0,71,0.00,,,0.00,weatherlink.com 1.10,2013-10-28 13:14:00,
2013-10-28 09:29:00,60.2,50.0,30.26,SE,143,2.0,4.0,69,0.00,,,0.00,weatherlink.com 1.10,2013-10-28 13:29:00,
2013-10-28 09:44:00,61.5,49.0,30.27,SW,219,2.0,4.0,64,0.00,,,0.00,weatherlink.com 1.10,2013-10-28 13:44:00,
2013-10-28 09:59:00,61.8,49.0,30.28,ESE,103,2.0,3.0,64,0.00,,,0.00,weatherlink.com 1.10,2013-10-28 13:59:00,
2013-10-28 10:14:00,62.7,50.0,30.28,SSW,200,4.0,4.0,64,0.00,,,0.00,weatherlink.com 1.10,2013-10-28 14:14:00,
2013-10-28 10:29:00,63.7,49.0,30.27,South,189,3.0,5.0,60,0.00,,,0.00,weatherlink.com 1.10,2013-10-28 14:29:00,
2013-10-28 10:44:00,64.7,49.0,30.27,WSW,240,3.0,7.0,57,0.00,,,0.00,weatherlink.com 1.10,2013-10-28 14:44:00,
2013-10-28 10:59:00,65.3,48.0,30.27,SW,229,3.0,7.0,53,0.00,,,0.00,weatherlink.com 1.10,2013-10-28 14:59:00,
2013-10-28 11:14:00,66.1,46.0,30.28,ENE,64,2.0,6.0,49,0.00,,,0.00,weatherlink.com 1.10,2013-10-28 15:14:00,
2013-10-28 11:29:00,65.8,45.0,30.28,SW,233,6.0,6.0,48,0.00,,,0.00,weatherlink.com 1.10,2013-10-28 15:29:00,
2013-10-28 11:44:00,66.5,47.0,30.27,WSW,253,5.0,8.0,50,0.00,,,0.00,weatherlink.com 1.10,2013-10-28 15:44:00,
2013-10-28 11:59:00,67.2,48.0,30.27,West,271,5.0,8.0,51,0.00,,,0.00,weatherlink.com 1.10,2013-10-28 15:59:00,
2013-10-28 12:14:00,68.9,51.0,30.26,SW,226,0.0,6.0,53,0.00,,,0.00,weatherlink.com 1.10,2013-10-28 16:14:00,
2013-10-28 12:29:00,68.7,53.0,30.26,ESE,111,3.0,6.0,57,0.00,,,0.00,weatherlink.com 1.10,2013-10-28 16:29:00,
2013-10-28 12:44:00,69.0,50.0,30.25,NW,323,1.0,5.0,51,0.00,,,0.00,weatherlink.com 1.10,2013-10-28 16:44:00,
2013-10-28 12:59:00,70.9,51.0,30.25,NNE,30,2.0,3.0,49,0.00,,,0.00,weatherlink.com 1.10,2013-10-28 16:59:00,
2013-10-28 13:14:00,69.4,53.0,30.24,ENE,61,0.0,5.0,57,0.00,,,0.00,weatherlink.com 1.10,2013-10-28 17:14:00,
2013-10-28 13:29:00,68.5,52.0,30.24,South,186,4.0,6.0,57,0.00,,,0.00,weatherlink.com 1.10,2013-10-28 17:29:00,
2013-10-28 13:44:00,67.3,54.0,30.24,SE,127,4.0,6.0,63,0.00,,,0.00,weatherlink.com 1.10,2013-10-28 17:44:00,
2013-10-28 13:59:00,68.0,52.0,30.24,South,186,4.0,7.0,58,0.00,,,0.00,weatherlink.com 1.10,2013-10-28 17:59:00,
2013-10-28 14:14:00,67.0,54.0,30.24,East,98,1.0,6.0,63,0.00,,,0.00,weatherlink.com 1.10,2013-10-28 18:14:00,
2013-10-28 14:29:00,66.7,53.0,30.24,South,189,3.0,6.0,62,0.00,,,0.00,weatherlink.com 1.10,2013-10-28 18:29:00,
2013-10-28 14:44:00,65.8,54.0,30.23,SSW,205,4.0,7.0,65,0.00,,,0.00,weatherlink.com 1.10,2013-10-28 18:44:00,
2013-10-28 14:59:00,66.4,55.0,30.23,SE,124,2.0,7.0,66,0.00,,,0.00,weatherlink.com 1.10,2013-10-28 18:59:00,
2013-10-28 15:14:00,65.4,56.0,30.23,SSW,212,6.0,7.0,72,0.00,,,0.00,weatherlink.com 1.10,2013-10-28 19:14:00,
2013-10-28 15:29:00,65.8,54.0,30.23,SSW,202,4.0,6.0,67,0.00,,,0.00,weatherlink.com 1.10,2013-10-28 19:29:00,
2013-10-28 15:44:00,65.5,55.0,30.23,SSE,165,2.0,6.0,68,0.00,,,0.00,weatherlink.com 1.10,2013-10-28 19:44:00,
2013-10-28 15:59:00,65.7,55.0,30.23,South,178,3.0,4.0,68,0.00,,,0.00,weatherlink.com 1.10,2013-10-28 19:59:00,
2013-10-28 16:29:00,65.0,56.0,30.23,SE,130,2.0,4.0,72,0.00,,,0.00,weatherlink.com 1.10,2013-10-28 20:29:00,
2013-10-28 16:44:00,64.6,58.0,30.23,ESE,109,2.0,3.0,79,0.00,,,0.00,weatherlink.com 1.10,2013-10-28 20:44:00,
2013-10-28 17:00:00,63.4,59.0,30.23,SE,131,3.0,4.0,84,0.00,,,0.00,weatherlink.com 1.10,2013-10-28 21:00:00,
2013-10-28 17:15:00,63.5,57.0,30.23,South,172,3.0,4.0,80,0.00,,,0.00,weatherlink.com 1.10,2013-10-28 21:15:00,
2013-10-28 17:30:00,64.1,59.0,30.23,ESE,104,0.0,3.0,82,0.00,,,0.00,weatherlink.com 1.10,2013-10-28 21:30:00,
2013-10-28 17:45:00,64.3,58.0,30.23,ESE,110,0.0,3.0,80,0.00,,,0.00,weatherlink.com 1.10,2013-10-28 21:45:00,
2013-10-28 18:00:00,63.5,58.0,30.23,ESE,104,2.0,3.0,81,0.00,,,0.00,weatherlink.com 1.10,2013-10-28 22:00:00,
2013-10-28 18:15:00,62.9,57.0,30.23,SSE,148,2.0,3.0,82,0.00,,,0.00,weatherlink.com 1.10,2013-10-28 22:15:00,
2013-10-28 18:30:00,62.4,57.0,30.24,SE,129,3.0,3.0,82,0.00,,,0.00,weatherlink.com 1.10,2013-10-28 22:30:00,
2013-10-28 18:45:00,62.2,57.0,30.24,SE,126,1.0,4.0,84,0.00,,,0.00,weatherlink.com 1.10,2013-10-28 22:45:00,
2013-10-28 19:00:00,61.9,57.0,30.25,South,186,4.0,4.0,85,0.00,,,0.00,weatherlink.com 1.10,2013-10-28 23:00:00,
2013-10-28 19:15:00,61.6,57.0,30.25,SSE,163,2.0,3.0,86,0.00,,,0.00,weatherlink.com 1.10,2013-10-28 23:15:00,
2013-10-28 19:30:00,61.6,57.0,30.25,SSE,149,2.0,4.0,85,0.00,,,0.00,weatherlink.com 1.10,2013-10-28 23:30:00,
2013-10-28 19:45:00,61.6,57.0,30.25,SSE,156,3.0,5.0,84,0.00,,,0.00,weatherlink.com 1.10,2013-10-28 23:45:00,
2013-10-28 20:00:00,61.6,56.0,30.25,SSW,205,4.0,6.0,83,0.00,,,0.00,weatherlink.com 1.10,2013-10-29 00:00:00,
2013-10-28 20:15:00,61.6,56.0,30.26,SW,221,4.0,5.0,83,0.00,,,0.00,weatherlink.com 1.10,2013-10-29 00:15:00,
2013-10-28 20:30:00,61.3,55.0,30.25,South,185,3.0,4.0,79,0.00,,,0.00,weatherlink.com 1.10,2013-10-29 00:30:00,
2013-10-28 20:45:00,61.5,54.0,30.25,South,170,3.0,3.0,75,0.00,,,0.00,weatherlink.com 1.10,2013-10-29 00:45:00,
2013-10-28 21:00:00,62.1,51.0,30.25,SSE,159,3.0,3.0,66,0.00,,,0.00,weatherlink.com 1.10,2013-10-29 01:00:00,
2013-10-28 21:15:00,61.5,51.0,30.26,South,190,3.0,5.0,68,0.00,,,0.00,weatherlink.com 1.10,2013-10-29 01:15:00,
2013-10-28 21:30:00,60.6,52.0,30.26,SW,230,4.0,6.0,74,0.00,,,0.00,weatherlink.com 1.10,2013-10-29 01:30:00,
2013-10-28 21:45:00,60.7,54.0,30.27,SW,218,6.0,8.0,78,0.00,,,0.00,weatherlink.com 1.10,2013-10-29 01:45:00,
2013-10-28 22:00:00,60.7,53.0,30.27,SSW,205,2.0,5.0,77,0.00,,,0.00,weatherlink.com 1.10,2013-10-29 02:00:00,
2013-10-28 22:15:00,60.6,53.0,30.27,SSW,207,2.0,5.0,77,0.00,,,0.00,weatherlink.com 1.10,2013-10-29 02:15:00,
2013-10-28 22:30:00,60.7,53.0,30.28,SE,140,1.0,3.0,76,0.00,,,0.00,weatherlink.com 1.10,2013-10-29 02:30:00,
2013-10-28 22:45:00,60.8,54.0,30.28,East,100,1.0,2.0,77,0.00,,,0.00,weatherlink.com 1.10,2013-10-29 02:45:00,
2013-10-28 23:00:00,61.1,55.0,30.28,ESE,103,2.0,3.0,79,0.00,,,0.00,weatherlink.com 1.10,2013-10-29 03:00:00,
2013-10-28 23:15:00,60.9,54.0,30.27,SE,135,2.0,3.0,79,0.00,,,0.00,weatherlink.com 1.10,2013-10-29 03:15:00,
2013-10-28 23:30:00,60.4,54.0,30.27,SSE,147,2.0,3.0,80,0.00,,,0.00,weatherlink.com 1.10,2013-10-29 03:30:00,
2013-10-28 23:45:00,60.1,54.0,30.27,SSE,162,2.0,3.0,81,0.00,,,0.00,weatherlink.com 1.10,2013-10-29 03:45:00,